Location: Melque
(41.0517°N, 4.4694°W)
Time: 21:15:14
(UTC+00:00)

Daily predictions for brighter satellites

Satellite Brightness Start Highest point End
(mag) Time Altitude Azimuth Time Altitude Azimuth Time Altitude Azimuth
Cosmos 2237 4.2 19:17:43 10° NNW 19:23:27 78° ENE 19:29:06 10° SSE
Cosmos 1184 Rocket 2.8 19:22:07 10° N 19:25:20 87° W 19:28:31 10° S
Lacrosse 5 rocket 3.9 19:24:51 10° WNW 19:27:56 21° NNW 19:31:09 10° NNE
Cosmos 2034 Rocket 4.1 19:23:03 10° S 19:29:07 61° E 19:35:17 10° NNE
Cosmos 1758 Rocket 3.6 19:25:07 10° N 19:29:35 76° E 19:34:04 10° SSE
Abrixas rocket 2.7 19:29:51 10° S 19:31:07 16° SE 19:32:23 10° E
ATLAS 5 CENTAUR R/B 2.9 19:30:44 10° NNE 19:31:33 12° NE 19:32:27 10° ENE
Cosmos 1602 Rocket 4.4 19:28:22 10° NNW 19:32:38 55° W 19:36:55 10° S
Nadezhda 4 Rocket 4.1 19:28:05 10° N 19:34:20 61° E 19:40:29 10° SSE
YAOGAN 1 3.8 19:31:16 10° S 19:35:23 45° W 19:39:33 10° NNW
Cosmos 1464 Rocket 4.2 19:30:35 10° S 19:36:54 83° W 19:43:11 10° N
Atlas Centaur 2 4.4 19:30:50 10° WSW 19:37:13 27° SSW 19:43:58 10° SE
In-Cosmos 22 Rocket 4.4 19:33:47 10° N 19:39:32 57° ENE 19:45:13 10° SSE
SJ-6B 3.4 19:37:18 10° SE 19:40:42 35° ENE 19:44:08 10° N
Meteor 2-10 Rocket 3.7 19:36:07 10° S 19:41:08 54° E 19:46:24 10° NNE
BREEZE-M DEB (TANK) 4.1 19:35:23 10° W 19:41:19 66° NNW 19:45:53 10° ENE
Cosmos 2237 Rocket 4.2 19:39:14 10° NNE 19:41:40 13° NE 19:44:05 10° ENE
SAR-Lupe-1 4.3 19:38:16 10° N 19:41:51 73° WNW 19:45:25 10° SSW
BREEZE-M DEB (TANK) 3.8 19:40:13 10° WSW 19:42:51 60° NNW 19:48:30 10° ENE
Cosmos 405 3.3 19:44:10 10° SSE 19:47:26 41° E 19:50:43 10° NNE
OBJECT-B 1.4 19:46:04 10° SE 19:49:04 38° ENE 19:52:07 10° N
BREEZE-M DEB (TANK) 4.0 19:48:24 10° WNW 19:51:29 77° SSW 19:58:52 12° SE
CZ-4 R/B 3.9 19:48:13 10° SSW 19:51:40 25° W 19:55:09 10° NW
BREEZE-M DEB (TANK) 4.0 19:48:43 10° WSW 19:52:15 57° NNW 20:03:12 10° NE
NOSS 3-4 (A) 4.1 19:46:34 10° SW 19:52:17 58° NW 19:58:25 10° NNE
NOSS 3-4 (C) 4.1 19:46:40 10° SW 19:52:23 58° NW 19:58:31 10° NNE
Cosmos 1892 2.6 19:53:26 10° N 19:57:11 65° E 20:00:57 10° SSE
Cosmos 1606 Rocket 3.8 19:52:53 10° SSW 19:57:15 73° W 20:01:37 10° N
Cosmos 2251 Rocket 4.0 19:54:38 10° S 19:59:36 40° ESE 20:04:33 10° NE
Cosmos 389 Rocket 4.3 20:00:14 14° E 20:00:14 14° E 20:02:11 10° NE
Cosmos 2322 Rocket 3.7 19:56:32 10° NW 20:01:41 36° WSW 20:06:48 10° S
Cosmos 2098 Rocket 4.4 19:54:49 10° N 20:01:56 66° E 20:09:16 10° SSE
Cosmos 2297 Rocket 3.6 20:02:12 15° ESE 20:03:14 16° E 20:06:33 10° ENE
Cosmos 1634 Rocket 4.2 19:58:26 10° SSE 20:04:30 52° E 20:10:32 10° NNE
ATLAS 2AS CENTAUR R/B 3.2 19:57:43 10° SW 20:05:38 79° NW 20:13:29 10° NNE
Cosmos 2333 Rocket 2.3 20:00:24 10° NNW 20:06:08 64° ENE 20:10:56 15° SE
BREEZE-M DEB (TANK) 4.3 20:04:37 10° NW 20:06:13 15° N 20:07:39 10° NE
Helios 1A Rocket 4.0 20:03:42 10° S 20:07:36 45° W 20:11:33 10° NNW
Cosmos 1726 Rocket 3.8 20:03:22 10° SSW 20:07:44 72° W 20:12:06 10° N
Cosmos 1825 2.7 20:06:22 10° N 20:09:56 39° ENE 20:11:59 21° SE
Ariane Rocket 3.1 20:07:30 12° SSE 20:12:08 60° ENE 20:17:06 10° N
Cosmos 2322 3.7 20:11:24 10° NNW 20:17:06 81° ENE 20:21:42 16° SSE
Orbus 7S? 3.4 20:14:45 10° WSW 20:17:18 58° NW 20:21:25 10° NE
Cosmos 1408 2.4 20:14:25 10° N 20:17:59 89° WSW 20:20:59 14° S
RESURS DK-1 2.2 20:15:19 10° SSW 20:19:24 79° ESE 20:23:33 10° NNE
Meteor 2-1 Rocket 4.3 20:20:14 10° S 20:25:57 67° E 20:31:50 10° NNE
Cosmos 2058 2.8 20:26:53 10° N 20:31:05 69° E 20:33:19 26° SSE
USA 186 3.9 20:30:01 10° SSW 20:32:48 26° W 20:35:32 10° NW
Meteor 2-19 Rocket 4.4 20:27:13 10° N 20:33:24 88° E 20:39:11 12° S
Cosmos 2058 Rocket 3.5 20:29:36 10° SSW 20:33:54 61° W 20:38:13 10° N
Cosmos 614 Rocket 3.9 20:29:12 10° S 20:34:14 58° ESE 20:39:16 10° NNE
SL-16 R/B 4.3 20:33:17 10° NNE 20:35:40 12° NE 20:37:53 10° ENE
BREEZE-M DEB (TANK) 4.4 20:33:15 10° W 20:37:10 48° N 20:50:06 10° ENE
Cosmos 1992 Rocket 4.0 20:33:29 10° NNW 20:38:43 83° WSW 20:42:03 23° SSE
Cosmos 2360 Rocket 3.9 20:37:46 10° NW 20:42:31 29° WSW 20:47:16 10° SSW
IRIDIUM 104 4.4 20:40:01 27° SSE 20:42:36 53° E 20:47:40 10° NNE
Cosmos 2344 3.6 20:36:29 10° SW 20:44:05 80° NW 20:51:51 10° NNE
Cosmos 2151 4.1 20:41:40 10° NNE 20:45:17 27° ENE 20:45:17 27° ENE
FALCON 9 DEB 4.3 20:43:04 10° WSW 20:46:21 44° NNW 20:49:40 10° NE
COSMOS 2428 2.7 20:40:54 10° NNW 20:46:41 86° WSW 20:49:50 28° SSE
Cosmos 1812 Rocket 3.7 20:47:57 43° SE 20:48:51 51° E 20:53:10 10° NNE
Cosmos 1076 Rocket 3.6 20:45:00 10° N 20:49:16 56° E 20:50:07 47° SE
ATLAS 3B R/B 2.8 20:42:18 10° NNW 20:49:23 77° NE 20:53:12 31° SE
USA 215 3.8 20:45:38 23° E 20:49:28 47° NNE 20:55:40 10° NW
IRIDIUM 114 4.3 20:49:08 29° SSE 20:51:43 65° E 20:56:54 10° N
Resurs 01 Rocket 1.5 20:50:19 40° SSE 20:51:51 76° ENE 20:56:18 10° N
Cosmos 1818 3.8 20:46:37 10° SW 20:52:01 70° NW 20:57:29 10° NNE
Cosmos 1455 3.8 20:49:30 10° SW 20:52:56 33° WNW 20:56:22 10° N
Cosmos 44 4.1 20:49:16 10° SW 20:54:14 57° NW 20:59:32 10° NNE
Cosmos 407 Rocket 3.7 20:53:35 41° SE 20:54:32 46° ESE 20:59:28 10° NNE
ERS-1 Rocket 4.4 20:54:40 22° ENE 20:54:58 22° ENE 20:58:46 10° NNE
Cosmos 2219 Rocket 2.7 20:54:09 10° NNW 20:59:42 56° WSW 21:02:58 24° S
NOSS 0 Rocket 3.9 20:54:34 10° NNW 21:00:48 72° ENE 21:03:07 40° SE
IRIDIUM 103 4.2 20:58:16 31° S 21:00:51 80° E 21:06:05 10° N
Resurs 1-3 4.5 21:00:37 21° SSW 21:03:14 46° W 21:07:27 10° NNW
Meteor 2-21 4.5 20:57:42 10° N 21:03:41 58° E 21:05:28 42° SE
IGS 5A 3.3 21:04:09 63° SSE 21:04:47 87° ENE 21:08:58 10° NNW
Cosmos 1633 3.6 21:01:42 10° N 21:04:10 34° NE 21:04:10 34° NE
Cosmos 1356 3.5 21:02:30 10° NNW 21:05:42 73° NW 21:05:42 73° NW
Cosmos 405 Rocket 3.0 21:08:01 10° NNW 21:12:00 64° W 21:12:30 57° SW
Cosmos 1023 Rocket 4.3 21:12:05 59° SE 21:12:31 62° ESE 21:17:31 10° NNE
COSMOS 2455 4.5 21:18:15 19° ENE 21:18:15 19° ENE 21:20:12 10° NE
SPOT 5 3.9 21:19:30 30° NE 21:19:30 30° NE 21:23:00 10° N
Cosmos 1140 Rocket 3.3 21:18:31 65° SE 21:18:56 69° ESE 21:24:02 10° NNE
Cosmos 1809 Rocket 4.3 21:12:52 10° N 21:19:00 89° W 21:21:11 43° S
Cosmos 2292 Rocket 4.4 21:14:18 10° N 21:21:06 75° W 21:22:59 42° S
Spot 2 Rocket 3.5 21:21:43 59° E 21:21:58 60° ENE 21:26:59 10° N
Cosmos 2279 Rocket 4.4 21:18:43 10° SSW 21:24:48 59° W 21:30:55 10° N
Cosmos 2237 Rocket 2.0 21:21:05 10° NNW 21:26:45 74° ENE 21:27:26 65° ESE
SL-8 R/B 3.6 21:22:03 10° WNW 21:26:54 83° SSW 21:26:55 83° SSW
CZ-2C R/B 4.0 21:23:23 10° N 21:27:47 63° WNW 21:28:54 46° SW
Terra 3.1 21:28:59 27° NE 21:28:59 27° NE 21:32:13 10° N
Cosmos 389 Rocket 4.3 21:33:58 27° W 21:34:33 28° WNW 21:37:40 10° NNW
MetOp-B 4.4 21:33:30 49° SSW 21:34:45 64° WSW 21:40:06 10° NNW
Meteor 2-14 Rocket 4.4 21:33:02 10° N 21:39:05 76° W 21:40:32 53° SSW
Cosmos 2227 Rocket 2.0 21:38:45 76° SSE 21:39:09 81° ESE 21:44:50 10° NNE
SPOT 1/Viking Rocket 3.6 21:38:50 67° SSW 21:39:24 74° WSW 21:44:38 10° NNW
Meteor 2-8 Rocket 4.5 21:42:18 60° E 21:42:18 60° E 21:48:10 10° NNE
ARIANE 5 R/B 3.1 21:46:52 59° NNW 21:46:52 59° NNW 21:50:29 10° NNW
Cosmos 2297 Rocket 2.4 21:43:48 30° SW 21:46:36 69° WNW 21:52:15 10° NNE
Cosmos 1190 Rocket 4.0 21:47:49 73° WSW 21:48:08 76° WNW 21:53:23 10° NNE
Cosmos 2219 3.3 21:47:37 45° SW 21:49:21 72° WNW 21:54:59 10° NNE
Cosmos 2333 Rocket 4.4 21:46:04 10° WNW 21:49:48 18° W 21:52:59 12° SW
Cosmos 2266 Rocket 4.0 21:47:01 10° N 21:53:24 77° W 21:54:23 64° SSW
Timation 2 Rocket 4.1 21:54:59 31° SW 21:58:22 74° WNW 22:04:45 10° NNE
BREEZE M DEB (TANK) 4.0 21:59:03 26° WSW 22:01:37 82° NNW 22:14:56 10° ENE
Cosmos-2242 4.2 22:02:37 40° NW 22:02:37 40° NW 22:06:07 10° N
SL-16 R/B 2.6 22:15:09 10° NNW 22:19:46 57° N 22:19:46 57° N
USA 215 3.6 22:32:58 55° WSW 22:32:58 55° WSW 22:38:48 10° NW
ERS-1 Rocket 4.2 22:34:39 37° WNW 22:34:39 37° WNW 22:38:16 10° NNW
ATLAS 3B R/B 4.4 22:34:15 10° WNW 22:39:27 22° WSW 22:40:29 21° WSW
Lacrosse 5 rocket 4.3 22:47:35 10° N 22:49:31 13° NNE 22:49:47 13° NNE
COSMOS 2455 3.7 23:01:18 46° NW 23:01:18 46° NW 23:06:38 10° NNE
Terra 4.0 23:07:51 21° NW 23:07:51 21° NW 23:09:58 10° NW
SeaSat 1 4.3 23:02:20 10° NNE 23:04:24 25° NNE 23:04:24 25° NNE
Cosmos 2237 Rocket 4.5 23:07:07 10° WNW 23:09:16 14° W 23:09:16 14° W
Cosmos 2263 Rocket 3.9 23:24:25 27° NNE 23:24:25 27° NNE 23:26:50 10° NNE
USA 229 DEB 4.2 23:27:12 10° NNW 23:33:33 62° N 23:33:33 62° N
USA 229 4.2 23:27:18 10° NNW 23:33:40 62° NNE 23:33:40 62° NNE
